Location: Derby
(52.9213°N, 1.4761°W)
Time: 16:39:40
(UTC+01:00)

Vanguard 2 Rocket - Pass Details

Date: 23 May 2025
Orbit: 554 x 3293 km, 32.9° (Epoch: 14 June)

Event Time Altitude Azimuth Distance (km) Brightness Sun altitude
Rises 00:43:03 0° 242° (WSW) 7,168 11.2 -16.4°
Reaches altitude 10° 00:48:56 10° 234° (SW) 5,934 10.7 -16.4°
Maximum altitude 01:02:52 31° 182° (S) 3,559 9.3 -16.5°
Drops below altitude 10° 01:12:28 10° 126° (SE) 4,053 9.9 -16.5°
Sets 01:15:36 0° 116° (ESE) 4,686 10.3 -16.4°
